This demonstration page uses our WeatherBlox Daily Observations layout. Learn more.

Left ArrowRight Arrow

Hourly Observations for July 2, 2016

Temp ( °F °C ) Dew Point ( °F °C ) Humidity (%) Winds ( mph kmh ) Pressure ( in mb ) Visibility ( mi km ) Precip ( " mm )
12:51 am 00:51 Clear 69 20.6 64 17.8 84 84 ENE 3 6 29.93 1013 10 16 0.00 0.00
1:51 am 01:51 Clear 68 20 64 17.8 87 87 ESE 5 7 29.94 1014 10 16 0.00 0.00
2:51 am 02:51 Clear 67 19.4 64 17.8 91 91 Calm 29.93 1013 10 16 0.00 0.00
3:51 am 03:51 Clear 66 18.9 65 18.3 96 96 WNW 5 7 29.93 1013 10 16 0.00 0.00
4:51 am 04:51 Clear 66 18.9 65 18.3 96 96 NNW 7 11 29.95 1014 10 16 0.00 0.00
5:51 am 05:51 Mostly Cloudy 68 20 65 18.3 90 90 WNW 7 11 29.98 1015 10 16 0.00 0.00
6:51 am 06:51 Sunny 70 21.1 66 18.9 87 87 WNW 15 24 29.99 1016 10 16 0.00 0.00
7:51 am 07:51 Sunny 70 21.1 66 18.9 87 87 WNW 9 15 30.01 1016 10 16 0.00 0.00
8:51 am 08:51 Mostly Cloudy 69 20.6 64 17.8 84 84 WNW 12 19 30.04 1017 10 16 0.00 0.03
9:51 am 09:51 Mostly Sunny 76 24.4 66 18.9 72 72 WNW 18 30 30.01 1016 10 16 0.00 0.00
10:51 am 10:51 Sunny 80 26.7 63 17.2 56 56 W 10 17 29.99 1016 10 16 0.00 0.00
11:51 am 11:51 Sunny 84 28.9 61 16.1 46 46 NW 9 15 29.96 1015 10 16 0.00 0.00
12:51 pm 12:51 Sunny 88 31.1 57 13.9 35 35 WNW 12 19 29.93 1014 10 16 0.00 0.00
1:51 pm 13:51 Sunny 91 32.8 56 13.3 31 31 NW 14 22 29.91 1013 10 16 0.00 0.00
2:51 pm 14:51 Sunny 93 33.9 56 13.3 29 29 WNW 15 24 29.88 1012 10 16 0.00 0.00
3:51 pm 15:51 Sunny 93 33.9 56 13.3 29 29 NW 18 30 29.85 1011 10 16 0.00 0.00
4:51 pm 16:51 Sunny 93 33.9 56 13.3 29 29 WNW 14 22 29.84 1011 10 16 0.00 0.00
5:51 pm 17:51 Sunny 92 33.3 56 13.3 30 30 WNW 18 30 29.84 1010 10 16 0.00 0.00
6:51 pm 18:51 Sunny 90 32.2 53 11.7 28 28 NW 17 28 29.84 1011 10 16 0.00 0.00
7:51 pm 19:51 Clear 86 30 58 14.4 39 39 NW 10 17 29.87 1012 10 16 0.00 0.00
8:51 pm 20:51 Clear 84 28.9 59 15 43 43 NNW 7 11 29.89 1012 10 16 0.00 0.00
9:51 pm 21:51 Clear 80 26.7 62 16.7 54 54 NW 7 11 29.90 1012 10 16 0.00 0.00
10:51 pm 22:51 Clear 78 25.6 62 16.7 58 58 NNW 7 11 29.88 1012 10 16 0.00 0.00
11:51 pm 23:51 Clear 76 24.4 62 16.7 62 62 NE 3 6 29.89 1012 10 16 0.00 0.00

Powered by AerisWeather